Location: Unspecified
(41.5000°N, 0.0000°E)
Time: 01:30:13
(UTC+00:00)

deb Explorer IX - Pass Details

Date: 27 June 2019
Orbit: 544 x 1107 km, 38.8° (Epoch: 14 October)

Event Time Altitude Azimuth Distance (km) Brightness Sun altitude
Rises 18:31:56 0° 271° (W) 3,921 ? 10.1°
Reaches altitude 10° 18:37:06 10° 241° (WSW) 2,923 ? 9.2°
Maximum altitude 18:39:14 11° 224° (SW) 2,784 ? 8.9°
Drops below altitude 10° 18:41:19 10° 207° (SSW) 2,855 ? 8.5°
Sets 18:46:12 0° 176° (S) 3,689 ? 7.7°
